[[{"header":{"parameterUnit":"m.s-1","parameterCategory":1,"la1":30.2991,"la2":30.254,"lo1":-89.0895,"lo2":-89.0444,"dy":0.0017,"dx":0.0017,"nx":28,"ny":28,"refTime":"2025-03-11T03:00:00:Z","depth":0,"parameterNumber":2,"parameterNumberName":"U-component_of_WINDS"},"data":[0,0,0,0,0,0,0,0,0,0,0,0,0,0,0,0,0,0,0,0,0,0,0,0,0,0,0,0,0,0,0,0,0,0,0,0,0,0,0,0,0,0,0,0,0,0,0,0,0,0,0,0,0,0,0,0,0,0,-1.0679,-1.0679,0,-1.0652,-1.0651,-1.0651,-1.0649,-1.065,-1.065,-1.065,-1.0619,-1.0618,-1.0617,0,0,0,0,0,0,0,0,0,0,0,0,0,-1.0728,-1.0727,-1.0679,-1.0679,-1.0678,-1.0652,-1.0651,-1.0651,-1.0649,-1.065,-1.065,-1.065,-1.062,-1.0618,-1.0617,0,0,0,0,0,0,0,0,0,0,0,0,0,-1.0704,-1.0726,-1.0679,-1.0675,-1.0674,-1.0652,-1.0651,-1.0651,-1.0649,-1.065,-1.065,-1.0651,-1.062,-1.0619,-1.0617,-1.0597,0,0,-1.0612,-1.0611,0,0,0,0,0,0,0,0,-1.0705,-1.0702,-1.0676,-1.0675,-1.0674,-1.0654,-1.0657,-1.0633,-1.0649,-1.0658,-1.065,-1.0651,-1.063,-1.0628,-1.0622,-1.0595,-1.0594,-1.0612,-1.0611,-1.061,-1.0609,0,0,0,0,0,0,0,-1.0707,-1.0703,-1.0668,-1.0675,-1.0674,-1.0673,-1.067,-1.0652,-1.0642,-1.0658,-1.0657,-1.0654,-1.063,-1.0623,-1.0621,-1.0594,-1.0612,-1.061,-1.0609,-1.0608,-1.0548,-1.0548,0,0,0,0,0,0,-1.071,-1.0705,-1.0669,-1.0667,-1.0691,-1.0672,-1.0668,-1.066,-1.0642,-1.064,-1.0654,-1.0654,-1.0626,-1.0623,-1.062,-1.0594,-1.061,-1.0608,-1.0607,-1.0549,-1.0548,-1.0548,0,0,0,0,0,0,-1.0711,-1.0707,-1.067,-1.0686,-1.0681,-1.067,-1.0661,-1.0659,-1.0653,-1.0639,-1.0637,-1.0649,-1.0626,-1.0622,-1.0603,-1.0593,-1.0607,-1.0606,-1.055,-1.0549,-1.0548,-1.0544,0,0,0,0,0,0,-1.0712,-1.0707,-1.07,-1.0686,-1.068,-1.0654,-1.066,-1.0659,-1.065,-1.065,-1.0634,-1.0632,-1.0626,-1.0605,-1.0601,-1.0591,-1.0605,-1.055,-1.0549,-1.0548,-1.0545,-1.0543,-1.0542,0,0,0,0,0,-1.0714,-1.07,-1.07,-1.0695,-1.0672,-1.0654,-1.0651,-1.0645,-1.0649,-1.0642,-1.0633,-1.0633,-1.0595,-1.0603,-1.0598,-1.0588,-1.0551,-1.055,-1.0548,-1.0546,-1.0544,-1.0542,0,0,0,0,0,0,-1.0712,-1.0698,-1.0698,-1.0678,-1.0667,-1.0654,-1.0644,-1.0643,-1.063,-1.063,-1.0623,-1.0619,-1.06,-1.0592,-1.0601,-1.0567,-1.0573,-1.0571,-1.0573,-1.0571,-1.0569,-1.0571,-1.0603,0,0,0,0,0,-1.071,-1.0697,-1.0685,-1.0669,-1.0664,-1.0655,-1.0647,-1.0643,-1.0631,-1.0626,-1.0616,-1.0604,-1.0589,-1.058,-1.0566,-1.0544,-1.054,-1.0535,-1.0533,-1.0532,-1.0529,-1.0516,-1.0514,-1.0543,-1.0543,-1.0543,0,0,-1.0704,-1.0695,-1.0687,-1.0669,-1.066,-1.0646,-1.0651,-1.0636,-1.0626,-1.0624,-1.0605,-1.0597,-1.0582,-1.0562,-1.0552,-1.0555,-1.052,-1.053,-1.0529,-1.0528,-1.0515,-1.0512,-1.051,-1.0542,-1.0543,-1.0543,0,0,-1.0687,-1.0679,-1.0665,-1.0656,-1.0643,-1.0637,-1.0633,-1.0619,-1.0614,-1.0595,-1.0593,-1.058,-1.0555,-1.0545,-1.0536,-1.0515,-1.0513,-1.051,-1.0501,-1.0489,-1.0487,-1.0484,-1.0476,-1.0473,-1.0508,-1.0508,-1.0508,0,-1.0682,-1.0662,-1.0657,-1.0643,-1.0634,-1.0633,-1.0617,-1.0609,-1.0591,-1.0585,-1.0588,-1.0557,-1.0547,-1.0523,-1.0518,-1.0511,-1.0506,-1.0512,-1.0487,-1.0485,-1.0483,-1.0475,-1.0472,-1.0508,-1.0508,-1.0508,-1.0508,0,-1.0656,-1.0642,-1.0632,-1.0615,-1.0606,-1.0591,-1.0583,-1.0574,-1.0571,-1.0564,-1.0544,-1.0532,-1.0516,-1.051,-1.0507,-1.0485,-1.0487,-1.0489,-1.0495,-1.048,-1.0472,-1.0469,-1.0508,-1.0508,-1.0508,-1.0508,0,0,-1.0637,-1.0618,-1.0614,-1.0606,-1.0591,-1.058,-1.0565,-1.0549,-1.0541,-1.0528,-1.0515,-1.0494,-1.0495,-1.0485,-1.0481,-1.047,-1.0453,-1.0473,-1.0473,-1.0469,-1.0427,-1.0425,-1.0422,-1.0452,-1.0452,-1.0451,-1.0428,0,-1.0617,-1.0591,-1.0586,-1.0562,-1.0549,-1.0547,-1.0534,-1.0522,-1.0516,-1.0502,-1.0495,-1.048,-1.0483,-1.0477,-1.0467,-1.0457,-1.0444,-1.0459,-1.0438,-1.0437,-1.0441,-1.0418,-1.0416,-1.0394,-1.0425,-1.0424,-1.0424,0,-1.0591,-1.0579,-1.0554,-1.054,-1.0535,-1.0523,-1.0507,-1.0495,-1.0482,-1.0478,-1.0467,-1.0464,-1.0447,-1.0454,-1.0429,-1.044,-1.0431,-1.0425,-1.0424,-1.0421,-1.0429,-1.0413,-1.0388,-1.0384,-1.0419,-1.042,-1.042,0,-1.0579,-1.0556,-1.0538,-1.0532,-1.0515,-1.0507,-1.0499,-1.0487,-1.0477,-1.0464,-1.0457,-1.0442,-1.0433,-1.042,-1.0412,-1.0419,-1.0388,-1.0395,-1.0383,-1.0383,-1.0376,-1.0377,-1.0348,-1.0372,-1.0372,-1.0372,-1.0372,0,-1.0557,-1.0542,-1.0532,-1.0521,-1.0504,-1.0498,-1.048,-1.0473,-1.0461,-1.0448,-1.0445,-1.0433,-1.0424,-1.0409,-1.0403,-1.0383,-1.038,-1.0375,-1.0373,-1.0375,-1.0375,-1.0368,-1.0369,-1.0371,-1.0371,-1.0372,-1.0372,0,-1.054,-1.0533,-1.0513,-1.05,-1.0496,-1.0483,-1.0471,-1.0459,-1.0453,-1.0436,-1.0431,-1.042,-1.0403,-1.0395,-1.0373,-1.0369,-1.0346,-1.0346,-1.0351,-1.035,-1.0339,-1.0339,-1.0304,-1.0298,-1.0327,-1.0326,-1.0326,0,-1.0527,-1.0515,-1.05,-1.0491,-1.0484,-1.047,-1.046,-1.0453,-1.0443,-1.0427,-1.0417,-1.04,-1.0387,-1.0359,-1.0349,-1.0332,-1.0331,-1.0319,-1.0328,-1.033,-1.0329,-1.033,-1.0328,-1.0317,-1.0317,-1.0317,-1.0317,0,-1.0503,-1.05,-1.0487,-1.0472,-1.0461,-1.0449,-1.0437,-1.043,-1.0421,-1.041,-1.0393,-1.0382,-1.036,-1.0343,-1.0325,-1.0317,-1.0315,-1.0314,-1.031,-1.0311,-1.0314,-1.0312,-1.0346,-1.0315,-1.0315,-1.0315,-1.0315,-1.0315,-1.0487,-1.0476,-1.0464,-1.0449,-1.0439,-1.0428,-1.0416,-1.0408,-1.0394,-1.0376,-1.0373,-1.0355,-1.0341,-1.0317,-1.0308,-1.0293,-1.0295,-1.029,-1.0288,-1.0287,-1.0286,-1.0318,-1.029,-1.029,-1.029,-1.029,-1.029,0,-1.0462,-1.0454,-1.0441,-1.0424,-1.0412,-1.0412,-1.0399,-1.0388,-1.0373,-1.036,-1.0347,-1.0326,-1.031,-1.0298,-1.028,-1.027,-1.0269,-1.0266,-1.0266,-1.0264,-1.0285,-1.029,-1.0267,-1.0267,-1.0267,-1.0267,-1.0267,-1.0267,-1.0448,-1.043,-1.0425,-1.0401,-1.0393,-1.0375,-1.0368,-1.0357,-1.0347,-1.0325,-1.0311,-1.0303,-1.0291,-1.0272,-1.0256,-1.0253,-1.0247,-1.0243,-1.024,-1.026,-1.0262,-1.0265,-1.0269,-1.0242,-1.0242,-1.022,-1.0219,-1.0219]},{"header":{"parameterUnit":"m.s-1","parameterCategory":1,"la1":30.2991,"la2":30.254,"lo1":-89.0895,"lo2":-89.0444,"dy":0.0017,"dx":0.0017,"nx":28,"ny":28,"refTime":"2025-03-11T03:00:00:Z","depth":0,"parameterNumber":3,"parameterNumberName":"V-component_of_WINDS"},"data":[0,0,0,0,0,0,0,0,0,0,0,0,0,0,0,0,0,0,0,0,0,0,0,0,0,0,0,0,0,0,0,0,0,0,0,0,0,0,0,0,0,0,0,0,0,0,0,0,0,0,0,0,0,0,0,0,0,0,3.5731,3.5732,0,3.5871,3.5873,3.5874,3.5895,3.5893,3.5892,3.5891,3.6034,3.6039,3.6044,0,0,0,0,0,0,0,0,0,0,0,0,0,3.5483,3.5487,3.5731,3.5733,3.5734,3.5871,3.5873,3.5875,3.5895,3.5893,3.5892,3.589,3.6032,3.6038,3.6044,0,0,0,0,0,0,0,0,0,0,0,0,0,3.5604,3.5489,3.573,3.5761,3.5765,3.587,3.5873,3.5875,3.5895,3.5893,3.5891,3.589,3.603,3.6037,3.6045,3.6129,0,0,3.6068,3.6071,0,0,0,0,0,0,0,0,3.5597,3.5613,3.5755,3.5759,3.5764,3.5863,3.5838,3.596,3.5896,3.5846,3.5891,3.5889,3.5979,3.599,3.6021,3.6136,3.6142,3.6068,3.6073,3.6076,3.6078,0,0,0,0,0,0,0,3.5588,3.5607,3.5786,3.5757,3.5762,3.5768,3.5783,3.5861,3.5921,3.585,3.5852,3.5868,3.5981,3.6013,3.6024,3.6144,3.6068,3.6075,3.6079,3.6082,3.6341,3.6343,0,0,0,0,0,0,3.5574,3.56,3.5782,3.579,3.5674,3.5774,3.5791,3.5833,3.592,3.5932,3.587,3.5869,3.6002,3.6015,3.6029,3.6137,3.6076,3.6083,3.6087,3.6338,3.6341,3.6344,0,0,0,0,0,0,3.5569,3.559,3.5776,3.5696,3.572,3.5781,3.5828,3.5837,3.587,3.5935,3.5946,3.5892,3.6001,3.6019,3.6105,3.6142,3.6087,3.6093,3.6335,3.6339,3.6342,3.635,0,0,0,0,0,0,3.5562,3.5588,3.562,3.5696,3.5724,3.5849,3.583,3.5841,3.5883,3.5883,3.5959,3.597,3.6,3.6094,3.6113,3.6151,3.6099,3.6332,3.6337,3.6341,3.6347,3.6354,3.6359,0,0,0,0,0,3.5553,3.5616,3.5622,3.5644,3.5765,3.5851,3.5867,3.5901,3.5885,3.5919,3.5962,3.5967,3.6135,3.6103,3.6124,3.6165,3.633,3.6336,3.6341,3.6344,3.6352,3.6359,0,0,0,0,0,0,3.5541,3.5626,3.5634,3.5723,3.578,3.5854,3.5897,3.5908,3.597,3.5967,3.6007,3.6024,3.611,3.6146,3.6109,3.6254,3.6231,3.6241,3.6227,3.6235,3.6241,3.6231,3.6105,0,0,0,0,0,3.5549,3.5612,3.5683,3.5755,3.5783,3.5836,3.5874,3.5896,3.5956,3.598,3.6029,3.6087,3.6154,3.6196,3.626,3.6353,3.6371,3.6392,3.6398,3.6403,3.6411,3.6466,3.6476,3.6361,3.6361,3.6361,0,0,3.5566,3.5621,3.5657,3.5754,3.5801,3.5866,3.5855,3.5923,3.5972,3.599,3.6076,3.6114,3.6182,3.6273,3.6315,3.6306,3.6447,3.6409,3.6413,3.6418,3.6472,3.6483,3.6493,3.6365,3.6364,3.6363,0,0,3.5631,3.5677,3.5744,3.5792,3.5863,3.5898,3.5914,3.5988,3.6014,3.6101,3.6117,3.6176,3.6288,3.6337,3.6377,3.6464,3.6473,3.6484,3.6516,3.6569,3.6578,3.6587,3.662,3.6631,3.6492,3.6492,3.6492,0,3.5643,3.5741,3.5777,3.5846,3.5889,3.591,3.5979,3.6023,3.6112,3.6142,3.613,3.6274,3.6321,3.6425,3.6447,3.6477,3.6499,3.6475,3.6574,3.6583,3.6591,3.6623,3.6636,3.6493,3.6493,3.6493,3.6493,0,3.5753,3.5821,3.5867,3.5953,3.6002,3.607,3.6118,3.6163,3.6181,3.6218,3.6308,3.6366,3.6444,3.647,3.6488,3.6578,3.657,3.6566,3.6544,3.6602,3.6634,3.6646,3.6494,3.6494,3.6494,3.6493,0,0,3.5812,3.592,3.5936,3.5978,3.6059,3.6113,3.6184,3.6261,3.63,3.6361,3.6423,3.6519,3.6517,3.6562,3.6586,3.6632,3.6702,3.6623,3.6625,3.6637,3.6808,3.6811,3.6825,3.6708,3.671,3.6712,3.6803,0,3.5887,3.6014,3.605,3.6157,3.6222,3.6245,3.6307,3.6365,3.6402,3.6463,3.6504,3.6573,3.6563,3.6591,3.6638,3.6683,3.6736,3.6677,3.6767,3.677,3.675,3.6841,3.6844,3.6926,3.6815,3.6817,3.6818,0,3.5991,3.6056,3.617,3.6247,3.6276,3.6331,3.6407,3.6464,3.6531,3.6555,3.6608,3.6628,3.6705,3.668,3.6787,3.6746,3.6785,3.6813,3.6817,3.6828,3.6798,3.6855,3.6953,3.6966,3.6837,3.6836,3.6834,0,3.6025,3.6141,3.6225,3.6259,3.6351,3.639,3.6429,3.6495,3.654,3.6606,3.6637,3.6711,3.6751,3.6809,3.685,3.6827,3.6955,3.6932,3.6979,3.6978,3.7005,3.7002,3.7112,3.7028,3.7028,3.7027,3.7027,0,3.6106,3.6175,3.6242,3.6294,3.6374,3.6416,3.6493,3.6534,3.6593,3.6655,3.6678,3.6735,3.6786,3.685,3.6883,3.6969,3.6987,3.7009,3.7017,3.7008,3.7005,3.7035,3.703,3.7031,3.703,3.7029,3.7029,0,3.6157,3.6204,3.6298,3.6378,3.64,3.6455,3.6524,3.6576,3.6615,3.6693,3.6714,3.6775,3.6853,3.69,3.6998,3.702,3.7115,3.712,3.7093,3.7097,3.7141,3.7137,3.7274,3.7295,3.7196,3.7197,3.7197,0,3.6205,3.626,3.6347,3.639,3.6431,3.6499,3.6547,3.6591,3.664,3.6723,3.6765,3.6845,3.6911,3.7034,3.7088,3.7164,3.7172,3.7215,3.7183,3.7173,3.7175,3.7172,3.7179,3.722,3.7221,3.7222,3.7222,0,3.6288,3.6309,3.6376,3.6453,3.6509,3.6571,3.6633,3.6667,3.6723,3.6776,3.6857,3.6908,3.701,3.7089,3.7171,3.7213,3.7228,3.7232,3.7247,3.7238,3.7221,3.7234,3.7109,3.7229,3.7228,3.7227,3.7227,3.7227,3.634,3.6391,3.6461,3.6536,3.6588,3.6646,3.67,3.6747,3.6815,3.6902,3.6924,3.7009,3.7079,3.719,3.7234,3.7302,3.7296,3.7317,3.7323,3.7328,3.733,3.721,3.7317,3.7317,3.7317,3.7317,3.7317,0,3.6425,3.6472,3.6541,3.6628,3.6688,3.6698,3.6768,3.6818,3.6892,3.6956,3.7021,3.7115,3.7194,3.7255,3.7336,3.7379,3.7388,3.7399,3.7396,3.7407,3.733,3.731,3.739,3.739,3.739,3.739,3.739,3.739,3.6477,3.6564,3.6595,3.6709,3.6756,3.684,3.688,3.6935,3.6986,3.709,3.7156,3.7196,3.726,3.7346,3.7419,3.7435,3.7465,3.7474,3.7492,3.7419,3.7411,3.7404,3.7385,3.748,3.748,3.7563,3.7564,3.7565]}]]